User: anonymous   Login
Location: Passau
(48.5830°N, 13.4830°E)
Time: 20:01:28
(UTC+02:00)
Language:

Transit 2A Rocket - Orbit

View from above orbital plane
View from above orbital plane
View from above satellite
View from above satellite

Ground track
Ground track

The orbit data is extracted from the following two-line orbital elements,

1    47U 60007C   24148.54387109  .00000395  00000-0  10941-3 0  9995
2    47  66.6656 261.7899 0227845 327.4299  31.2917 14.43563756342820
Epoch (UTC): 27 May 2024 13:03:10
Eccentricity: 0.0227845
inclination: 66.6656°
perigee height: 584 km
apogee height: 909 km
right ascension of ascending node: 261.7899°
argument of perigee: 327.4299°
revolutions per day: 14.43563756
mean anomaly at epoch: 31.2917°
orbit number at epoch: 34282

The dashed part of the orbit path shows where the satellite is in the earth's shadow,  

DLR